[[{"header":{"parameterUnit":"m.s-1","parameterCategory":1,"la1":30.2991,"la2":30.254,"lo1":-89.0895,"lo2":-89.0444,"dy":0.0017,"dx":0.0017,"nx":28,"ny":28,"refTime":"2024-09-25T21:00:00:Z","depth":0,"parameterNumber":2,"parameterNumberName":"U-component_of_WINDS"},"data":[0,0,0,0,0,0,0,0,0,0,0,0,0,0,0,0,0,0,0,0,0,0,0,0,0,0,0,0,0,0,0,0,0,0,0,0,0,0,0,0,0,0,0,0,0,0,0,0,0,0,0,0,0,0,0,0,0,0,5.7223,5.7225,0,5.7408,5.741,5.7412,5.7364,5.7361,5.7357,5.7353,5.7544,5.7553,5.7561,0,0,0,0,0,0,0,0,0,0,0,0,0,5.6829,5.6836,5.7222,5.7225,5.7227,5.7407,5.741,5.7412,5.7365,5.736,5.7356,5.7352,5.7542,5.7552,5.7562,0,0,0,0,0,0,0,0,0,0,0,0,0,5.7006,5.6839,5.7222,5.7225,5.7227,5.7407,5.741,5.7413,5.7366,5.736,5.7355,5.735,5.7538,5.7551,5.7563,5.7752,0,0,5.7602,5.7608,0,0,0,0,0,0,0,0,5.6996,5.702,5.7222,5.7225,5.7228,5.7357,5.7341,5.7527,5.7367,5.7313,5.7353,5.7347,5.7487,5.7503,5.755,5.7761,5.7769,5.7603,5.7611,5.7617,5.762,0,0,0,0,0,0,0,5.6984,5.7012,5.7296,5.7225,5.7229,5.7218,5.7237,5.7376,5.7429,5.7317,5.7314,5.7337,5.7487,5.7538,5.7554,5.7772,5.7603,5.7614,5.7622,5.7627,5.8147,5.8153,0,0,0,0,0,0,5.6969,5.7002,5.729,5.7301,5.7096,5.7229,5.725,5.7321,5.7427,5.7438,5.7341,5.7334,5.7519,5.7539,5.7561,5.7789,5.7616,5.7628,5.7636,5.8141,5.8148,5.8155,0,0,0,0,0,0,5.6961,5.6995,5.7282,5.7151,5.7187,5.7242,5.7322,5.7328,5.7378,5.7445,5.7454,5.7384,5.7515,5.7543,5.7705,5.7795,5.7634,5.7646,5.8134,5.8143,5.8152,5.8246,0,0,0,0,0,0,5.695,5.6992,5.7064,5.7153,5.7194,5.7423,5.7327,5.7335,5.74,5.7393,5.7487,5.7497,5.7513,5.7686,5.7717,5.7809,5.7656,5.8126,5.8138,5.8149,5.8235,5.8257,5.8276,0,0,0,0,0,5.6936,5.7083,5.7068,5.7103,5.7285,5.7428,5.7452,5.7466,5.7408,5.7481,5.7524,5.7494,5.778,5.7703,5.7738,5.7835,5.812,5.8134,5.8148,5.8225,5.8253,5.8275,0,0,0,0,0,0,5.7004,5.7095,5.7079,5.726,5.7337,5.742,5.7512,5.7495,5.759,5.7579,5.7593,5.7615,5.778,5.7824,5.7737,5.8023,5.7942,5.7963,5.7989,5.8015,5.8035,5.8021,5.7666,0,0,0,0,0,5.704,5.7148,5.7222,5.7375,5.7414,5.7457,5.752,5.7525,5.7605,5.7637,5.7692,5.7771,5.7879,5.7949,5.8052,5.8241,5.8261,5.8325,5.8346,5.8362,5.8381,5.8484,5.8513,5.8201,5.82,5.82,0,0,5.7116,5.7179,5.7246,5.739,5.745,5.7563,5.7484,5.7606,5.769,5.7656,5.7812,5.7855,5.7945,5.8121,5.8201,5.8162,5.8472,5.838,5.8393,5.8402,5.8501,5.8531,5.8557,5.821,5.8208,5.8207,0,0,5.7311,5.737,5.7503,5.7565,5.7657,5.7684,5.7716,5.7803,5.783,5.7987,5.7963,5.8064,5.8249,5.8313,5.8371,5.8592,5.8568,5.8625,5.8732,5.8833,5.8857,5.8879,5.8958,5.8986,5.8643,5.8643,5.8643,0,5.7393,5.7561,5.7574,5.7698,5.7762,5.7737,5.7872,5.7932,5.8053,5.8098,5.8052,5.8284,5.8343,5.8534,5.8588,5.8635,5.8673,5.8614,5.8853,5.8875,5.8896,5.8971,5.9,5.8649,5.8649,5.8648,5.8647,0,5.7658,5.7775,5.7872,5.7989,5.8064,5.8194,5.8226,5.8301,5.83,5.8332,5.8493,5.8562,5.8679,5.8724,5.8725,5.8916,5.8889,5.8849,5.8767,5.8931,5.9002,5.9031,5.8658,5.8656,5.8654,5.8653,0,0,5.7901,5.8023,5.8059,5.8112,5.8212,5.8302,5.8431,5.8545,5.8608,5.8693,5.8802,5.8959,5.8922,5.8987,5.8995,5.9083,5.9254,5.9032,5.9034,5.907,5.9469,5.9499,5.9532,5.9239,5.9245,5.9249,5.9462,0,5.8104,5.833,5.8345,5.855,5.8658,5.8636,5.8748,5.8822,5.8856,5.8953,5.8991,5.9102,5.9045,5.9084,5.9171,5.9214,5.9334,5.9199,5.934,5.9345,5.9318,5.9569,5.9601,5.9798,5.9489,5.9494,5.9498,0,5.8372,5.8464,5.8679,5.8764,5.881,5.891,5.9016,5.9109,5.9193,5.9211,5.9285,5.928,5.9413,5.9327,5.951,5.9418,5.9477,5.9507,5.9515,5.9528,5.9431,5.9589,5.9861,5.989,5.9541,5.9538,5.9535,0,5.8527,5.8705,5.8857,5.8903,5.9006,5.9077,5.9123,5.9201,5.9269,5.9361,5.9405,5.9512,5.9571,5.9654,5.9679,5.9614,5.9861,5.9777,5.9881,5.988,5.9933,5.9929,6.0218,5.9972,5.9972,5.9971,5.9971,0,5.8752,5.8884,5.8928,5.9021,5.9169,5.9186,5.9332,5.9374,5.9444,5.9545,5.9533,5.9629,5.9655,5.9756,5.9776,5.9925,5.9952,5.9971,5.9974,5.9972,5.9969,6.001,5.9996,5.9979,5.9977,5.9976,5.9975,0,5.895,5.8984,5.9148,5.9232,5.9256,5.9362,5.9434,5.9524,5.9556,5.9685,5.9716,5.9767,5.9885,5.9918,6.006,6.0073,6.0248,6.0239,6.022,6.0219,6.0321,6.0311,6.0645,6.069,6.0415,6.0418,6.042,0,5.9091,5.9192,5.9287,5.9354,5.9403,5.9511,5.958,5.9601,5.9673,5.9776,5.9854,5.997,6.0064,6.0254,6.0304,6.0413,6.0406,6.0516,6.0422,6.0416,6.0407,6.0401,6.0411,6.0534,6.0536,6.0539,6.0541,0,5.9338,5.935,5.9449,5.9555,5.9637,5.9722,5.9802,5.9858,5.9891,5.9973,6.0093,6.0166,6.031,6.0426,6.0536,6.0584,6.0569,6.057,6.06,6.0597,6.0582,6.0591,6.0267,6.0562,6.056,6.0558,6.0557,6.0556,5.9512,5.9601,5.9681,5.9792,5.9856,5.9932,6.002,6.0064,6.0164,6.0283,6.029,6.042,6.0502,6.0648,6.0702,6.0805,6.0772,6.0815,6.0826,6.0836,6.0844,6.0566,6.0825,6.0824,6.0824,6.0823,6.0823,0,5.9758,5.9809,5.9911,6.0024,6.0112,6.0089,6.0178,6.0252,6.0367,6.0444,6.0537,6.0676,6.0788,6.0847,6.0959,6.103,6.1026,6.1059,6.1053,6.1065,6.0867,6.083,6.106,6.106,6.106,6.106,6.106,6.106,5.9896,6.0045,6.0067,6.0248,6.0298,6.0425,6.0477,6.0548,6.0609,6.0764,6.0857,6.0895,6.0966,6.1082,6.1185,6.1199,6.1241,6.1278,6.1288,6.1103,6.1078,6.1055,6.102,6.1287,6.1287,6.1477,6.1479,6.148]},{"header":{"parameterUnit":"m.s-1","parameterCategory":1,"la1":30.2991,"la2":30.254,"lo1":-89.0895,"lo2":-89.0444,"dy":0.0017,"dx":0.0017,"nx":28,"ny":28,"refTime":"2024-09-25T21:00:00:Z","depth":0,"parameterNumber":3,"parameterNumberName":"V-component_of_WINDS"},"data":[0,0,0,0,0,0,0,0,0,0,0,0,0,0,0,0,0,0,0,0,0,0,0,0,0,0,0,0,0,0,0,0,0,0,0,0,0,0,0,0,0,0,0,0,0,0,0,0,0,0,0,0,0,0,0,0,0,0,-3.4096,-3.4097,0,-3.4236,-3.4238,-3.4239,-3.4215,-3.4212,-3.421,-3.4207,-3.4354,-3.436,-3.4366,0,0,0,0,0,0,0,0,0,0,0,0,0,-3.381,-3.3815,-3.4096,-3.4097,-3.4099,-3.4236,-3.4238,-3.424,-3.4215,-3.4212,-3.4209,-3.4206,-3.4352,-3.4359,-3.4367,0,0,0,0,0,0,0,0,0,0,0,0,0,-3.394,-3.3817,-3.4095,-3.4103,-3.4105,-3.4235,-3.4238,-3.424,-3.4216,-3.4212,-3.4208,-3.4205,-3.4349,-3.4358,-3.4368,-3.45,0,0,-3.4396,-3.44,0,0,0,0,0,0,0,0,-3.3933,-3.3951,-3.41,-3.4103,-3.4105,-3.4204,-3.4191,-3.4327,-3.4217,-3.4174,-3.4207,-3.4203,-3.4307,-3.432,-3.4354,-3.4506,-3.4513,-3.4397,-3.4403,-3.4407,-3.4409,0,0,0,0,0,0,0,-3.3924,-3.3945,-3.4151,-3.4103,-3.4106,-3.4101,-3.4115,-3.4216,-3.426,-3.4177,-3.4176,-3.4193,-3.4308,-3.4345,-3.4358,-3.4515,-3.4397,-3.4405,-3.4411,-3.4414,-3.4784,-3.4788,0,0,0,0,0,0,-3.3912,-3.3937,-3.4147,-3.4155,-3.4008,-3.4109,-3.4125,-3.4176,-3.4259,-3.4267,-3.4196,-3.4191,-3.4331,-3.4347,-3.4363,-3.4523,-3.4407,-3.4415,-3.4421,-3.4779,-3.4784,-3.4789,0,0,0,0,0,0,-3.3906,-3.3931,-3.4141,-3.4046,-3.4072,-3.4118,-3.4175,-3.4181,-3.4218,-3.4272,-3.428,-3.4226,-3.4329,-3.435,-3.4466,-3.4528,-3.442,-3.4428,-3.4774,-3.4781,-3.4787,-3.4845,0,0,0,0,0,0,-3.3898,-3.3929,-3.3979,-3.4047,-3.4078,-3.4241,-3.4179,-3.4186,-3.4234,-3.4229,-3.4303,-3.4311,-3.4328,-3.4452,-3.4475,-3.4539,-3.4435,-3.4769,-3.4777,-3.4785,-3.4838,-3.4853,-3.4865,0,0,0,0,0,-3.3888,-3.399,-3.3981,-3.4007,-3.4141,-3.4245,-3.4262,-3.4278,-3.4239,-3.429,-3.4325,-3.4309,-3.4517,-3.4464,-3.449,-3.4557,-3.4765,-3.4775,-3.4784,-3.4832,-3.485,-3.4865,0,0,0,0,0,0,-3.3929,-3.3999,-3.399,-3.4118,-3.4175,-3.424,-3.4305,-3.4296,-3.4367,-3.436,-3.4377,-3.4394,-3.4512,-3.4546,-3.4486,-3.469,-3.4636,-3.4651,-3.4663,-3.4681,-3.4694,-3.4684,-3.4443,0,0,0,0,0,-3.3952,-3.403,-3.4088,-3.4195,-3.4224,-3.426,-3.4305,-3.4313,-3.4373,-3.4398,-3.4441,-3.4502,-3.4581,-3.4633,-3.4708,-3.4842,-3.4859,-3.4902,-3.4915,-3.4926,-3.494,-3.5014,-3.5034,-3.482,-3.482,-3.482,0,0,-3.4002,-3.405,-3.4098,-3.4204,-3.4249,-3.433,-3.428,-3.4368,-3.4429,-3.4412,-3.4524,-3.4558,-3.4627,-3.4753,-3.481,-3.4785,-3.5002,-3.4939,-3.4947,-3.4954,-3.5026,-3.5046,-3.5064,-3.4827,-3.4825,-3.4824,0,0,-3.4135,-3.4179,-3.4273,-3.4319,-3.4388,-3.4412,-3.4434,-3.4501,-3.4523,-3.4635,-3.4624,-3.4697,-3.4833,-3.4883,-3.4926,-3.5077,-3.5066,-3.5102,-3.5174,-3.5246,-3.5263,-3.5278,-3.5333,-3.5353,-3.5114,-3.5115,-3.5115,0,-3.4189,-3.4309,-3.4323,-3.4412,-3.4459,-3.4446,-3.4542,-3.4587,-3.4678,-3.4711,-3.4681,-3.4852,-3.4897,-3.5035,-3.5072,-3.5107,-3.5134,-3.5094,-3.5259,-3.5275,-3.5289,-3.5342,-3.5362,-3.5119,-3.5118,-3.5118,-3.5117,0,-3.4373,-3.4456,-3.4524,-3.4611,-3.4666,-3.4758,-3.4787,-3.4841,-3.4843,-3.487,-3.4986,-3.504,-3.5126,-3.5159,-3.5163,-3.5299,-3.5281,-3.5255,-3.5201,-3.5313,-3.5363,-3.5383,-3.5124,-3.5123,-3.5122,-3.5121,0,0,-3.4536,-3.4628,-3.4653,-3.4693,-3.4768,-3.4834,-3.4926,-3.501,-3.5056,-3.512,-3.5198,-3.5313,-3.529,-3.5339,-3.5348,-3.5411,-3.553,-3.5378,-3.538,-3.5405,-3.5683,-3.5703,-3.5726,-3.5522,-3.5526,-3.5529,-3.5678,0,-3.4676,-3.4837,-3.4852,-3.4997,-3.5076,-3.5065,-3.5145,-3.5201,-3.5228,-3.53,-3.533,-3.5412,-3.5375,-3.5404,-3.5466,-3.5502,-3.5586,-3.5491,-3.5597,-3.56,-3.558,-3.5752,-3.5773,-3.5911,-3.5698,-3.5701,-3.5703,0,-3.4861,-3.4929,-3.5082,-3.5147,-3.518,-3.5252,-3.533,-3.5398,-3.5462,-3.5477,-3.5532,-3.5533,-3.5629,-3.5571,-3.5704,-3.564,-3.5684,-3.5708,-3.5714,-3.5725,-3.5659,-3.5769,-3.5955,-3.5977,-3.5734,-3.5732,-3.5729,0,-3.4966,-3.5095,-3.5204,-3.5238,-3.5316,-3.5367,-3.5402,-3.5461,-3.5511,-3.558,-3.5613,-3.5692,-3.5736,-3.5799,-3.5821,-3.5777,-3.5954,-3.5898,-3.5971,-3.5971,-3.601,-3.6007,-3.6207,-3.6037,-3.6036,-3.6036,-3.6035,0,-3.5122,-3.5216,-3.5252,-3.5319,-3.5424,-3.5441,-3.5545,-3.5578,-3.5631,-3.5705,-3.57,-3.577,-3.5795,-3.587,-3.5888,-3.5997,-3.6016,-3.6033,-3.6037,-3.6034,-3.6032,-3.6063,-3.6055,-3.6041,-3.604,-3.6039,-3.6038,0,-3.5257,-3.5285,-3.5402,-3.5466,-3.5484,-3.556,-3.5615,-3.568,-3.5706,-3.58,-3.5823,-3.5865,-3.5952,-3.598,-3.6086,-3.6099,-3.6226,-3.6221,-3.6204,-3.6205,-3.6277,-3.627,-3.6505,-3.6537,-3.6344,-3.6346,-3.6348,0,-3.5355,-3.5427,-3.5499,-3.5547,-3.5584,-3.5663,-3.5713,-3.5732,-3.5785,-3.5863,-3.5919,-3.6005,-3.6075,-3.6216,-3.6256,-3.6337,-3.6335,-3.6412,-3.6347,-3.6343,-3.6338,-3.6334,-3.6342,-3.6424,-3.6426,-3.6428,-3.6429,0,-3.5527,-3.5537,-3.5609,-3.5687,-3.5747,-3.5809,-3.5869,-3.5909,-3.5938,-3.5998,-3.6086,-3.614,-3.6248,-3.6334,-3.6417,-3.6454,-3.6448,-3.6449,-3.647,-3.6469,-3.6457,-3.6465,-3.6238,-3.6444,-3.6442,-3.6441,-3.644,-3.644,-3.5648,-3.5712,-3.5772,-3.5853,-3.5899,-3.5956,-3.602,-3.6054,-3.6128,-3.6216,-3.6223,-3.6319,-3.6382,-3.6492,-3.6534,-3.661,-3.6588,-3.6619,-3.6627,-3.6635,-3.6641,-3.6443,-3.6625,-3.6625,-3.6624,-3.6624,-3.6624,0,-3.582,-3.5858,-3.5932,-3.6016,-3.608,-3.6066,-3.6132,-3.6187,-3.6271,-3.6329,-3.6398,-3.65,-3.6584,-3.6631,-3.6715,-3.6767,-3.6766,-3.6788,-3.6785,-3.6794,-3.6655,-3.6629,-3.6788,-3.6788,-3.6788,-3.6788,-3.6788,-3.6788,-3.5918,-3.6025,-3.6042,-3.6173,-3.6211,-3.6304,-3.6343,-3.6395,-3.6442,-3.6556,-3.6625,-3.6654,-3.6709,-3.6797,-3.6873,-3.6885,-3.6917,-3.6942,-3.6952,-3.6821,-3.6804,-3.6788,-3.6763,-3.6948,-3.6948,-3.7085,-3.7086,-3.7087]}]]